カタログに戻る

STARLINK-37612

運用中通信SSO
NORAD 69039·PAYLOAD·🇺🇸 United States

打ち上げ May 6, 2026 から Vandenberg Space Force Base

Loading…

次のパス (今後24時間)

TLE

最新Source: CelesTrak SupGP

元期: Sep 14, 2026, 21:27 UTC

1 69039C 26101Q   26257.89423611  .00050259  00000+0  15607-2 0  2571
2 69039  97.2851 111.4127 0002224  93.7426  20.6956 15.33400421    11

AllMySatでSTARLINK-37612をリアルタイム追跡

Download on the App Store